Weather History for El Centro, CA

Change the Weather History Date:

Wednesday, February 20, 2013

  Actual Average Record
Temperature  
Mean Temperature 54 °F -  
Max Temperature 63 °F 69 °F 81 °F (1997)
Min Temperature 46 °F 48 °F 41 °F (2009)
Degree Days  
Heating Degree Days 10    
Growing Degree Days 4 (Base 50)    
Moisture  
Dew Point 32 °F    
Average Humidity 46    
Maximum Humidity 77    
Minimum Humidity 25    
Precipitation  
Precipitation 0.00 in - - ()
Sea Level Pressure  
Sea Level Pressure 29.85 in    
Wind  
Wind Speed 13 mph (WSW)    
Max Wind Speed 23 mph    
Max Gust Speed 28 mph    
Visibility 10 miles    
Events Rain    
Averages and records for this station are not official NWS values.
T = Trace of Precipitation, MM = Missing Value Source: NWS Daily Summary

Daily Weather History Graph

Daily Weather History Graph

Search for Another Location

Airport:

Trip Planner

Search our weather history database for the weather conditions in past years. The results will help you decide how hot, cold, wet, or windy it might be!

Date:

Astronomy

Feb. 20, 2013 Rise Set
Actual Time 6:20 AM PST 5:32 PM PST
Civil Twilight 5:55 AM PST 5:57 PM PST
Nautical Twilight 5:26 AM PST 6:26 PM PST
Astronomical Twilight 4:57 AM PST 6:55 PM PST
Moon 1:07 PM PST 2:34 AM PST
Length of Visible Light 12h 02m
Length of Day
11h 12m
Waxing Gibbous, 77% of the Moon is Illuminated
Feb 20
Waxing Gibbous
Feb 25
Full
Mar 4
Last Quarter
Mar 11
New
Mar 19
First Quarter

Hourly Weather History & Observations

Time (PST) Temp. Windchill Dew Point Humidity Pressure Visibility Wind Dir Wind Speed Gust Speed Precip Events Conditions
12:56 AM 52.0 °F - 39.0 °F 61% 29.74 in 10.0 mi SW 9.2 mph - 0.00 in Rain Light Rain
1:56 AM 50.0 °F - 39.0 °F 66% 29.73 in 10.0 mi WNW 10.4 mph - 0.00 in   Overcast
2:56 AM 48.0 °F - 41.0 °F 77% 29.73 in 10.0 mi SW 10.4 mph - 0.00 in   Overcast
3:56 AM 46.9 °F - 39.9 °F 77% 29.74 in 10.0 mi West 9.2 mph - N/A   Scattered Clouds
6:56 AM 46.0 °F 39.3 °F 35.1 °F 66% 29.77 in 10.0 mi WSW 16.1 mph - N/A   Scattered Clouds
7:56 AM 48.0 °F - 35.1 °F 61% 29.79 in 10.0 mi WSW 12.7 mph - N/A   Mostly Cloudy
8:56 AM 53.1 °F - 33.1 °F 47% 29.81 in 10.0 mi West 19.6 mph 24.2 mph N/A   Scattered Clouds
9:56 AM 55.0 °F - 28.9 °F 37% 29.81 in 10.0 mi West 18.4 mph - N/A   Partly Cloudy
10:56 AM 57.0 °F - 26.1 °F 30% 29.81 in 10.0 mi WNW 11.5 mph 20.7 mph N/A   Partly Cloudy
11:56 AM 57.9 °F - 24.1 °F 27% 29.82 in 10.0 mi WNW 17.3 mph 23.0 mph N/A   Scattered Clouds
12:56 PM 60.1 °F - 24.1 °F 25% 29.82 in 10.0 mi West 17.3 mph 26.5 mph N/A   Mostly Cloudy
1:56 PM 61.0 °F - 27.0 °F 27% 29.83 in 10.0 mi West 13.8 mph 26.5 mph N/A   Scattered Clouds
2:56 PM 63.0 °F - 27.0 °F 26% 29.82 in 10.0 mi NW 15.0 mph - N/A   Scattered Clouds
3:56 PM 62.1 °F - 27.0 °F 26% 29.85 in 10.0 mi West 19.6 mph - N/A   Partly Cloudy
4:56 PM 59.0 °F - 28.9 °F 32% 29.88 in 10.0 mi WSW 21.9 mph - N/A   Partly Cloudy
5:56 PM 55.0 °F - 33.1 °F 43% 29.90 in 10.0 mi WSW 18.4 mph - N/A   Partly Cloudy
6:56 PM 55.0 °F - 33.1 °F 43% 29.92 in 10.0 mi WSW 23.0 mph 27.6 mph N/A   Clear
7:56 PM 53.1 °F - 33.1 °F 47% 29.94 in 10.0 mi WSW 18.4 mph - N/A   Clear
8:56 PM 52.0 °F - 32.0 °F 47% 29.96 in 10.0 mi WSW 15.0 mph - N/A   Clear
9:56 PM 50.0 °F - 30.9 °F 48% 29.97 in 10.0 mi SW 10.4 mph - N/A   Clear
10:56 PM 48.0 °F - 30.0 °F 50% 29.97 in 10.0 mi WSW 9.2 mph - N/A   Clear
11:56 PM 46.0 °F 41.4 °F 30.9 °F 56% 29.99 in 10.0 mi SW 9.2 mph - N/A   Clear